DW8492 Weather Reports


Display with metric or nautical units.
time (UTC)temp
F
wind
direction
speed
MPH
gust
MPH
rain 1hr
in
rain 24hr
in
rain mn
in
humidity
%
barometer
mb
20260903110040 71 203 0.0 2.0 0.00 0.30 0.00 97 1013.8
20260903104610 71 215 0.0 0.0 0.00 0.30 0.00 97 1013.7
20260903103033 71 215 0.0 0.0 0.00 0.30 0.00 97 1013.8
20260903101612 72 215 0.0 0.0 0.00 0.30 0.00 97 1013.7
20260903100035 72 204 0.0 0.0 0.00 0.30 0.00 97 1013.4
20260903094506 72 203 0.0 0.0 0.00 0.30 0.00 97 1013.3
20260903093049 72 204 0.0 0.0 0.00 0.30 0.00 97 1013.4
20260903091514 72 204 0.0 0.0 0.00 0.30 0.00 97 1013.5
20260903090107 72 203 0.0 0.0 0.00 0.30 0.00 97 1013.4
20260903084531 72 203 0.0 0.0 0.00 0.30 0.00 97 1013.6
20260903083109 73 203 0.0 2.0 0.00 0.30 0.00 97 1013.9
20260903081532 73 203 0.0 0.0 0.00 0.30 0.00 97 1013.8
20260903074522 74 189 0.0 0.0 0.00 0.30 0.00 97 1013.2
20260903073113 74 124 0.0 3.0 0.00 0.30 0.00 97 1013.0
20260903071643 74 242 0.0 4.0 0.00 0.30 0.00 97 1012.8
20260903064611 73 238 0.0 0.0 0.00 0.30 0.00 97 1012.8
20260903063036 73 238 0.0 1.0 0.00 0.30 0.00 97 1013.1
20260903061606 73 238 0.0 0.0 0.00 0.30 0.00 97 1013.0
20260903060029 73 238 0.0 1.0 0.00 0.30 0.00 97 1013.2
20260903054600 73 238 0.0 0.0 0.00 0.30 0.00 97 1013.4
20260903053023 73 238 0.0 0.0 0.00 0.30 0.00 97 1013.4
20260903051551 73 238 0.0 0.0 0.00 0.30 0.00 97 1013.3
20260903050013 73 238 0.0 1.0 0.00 0.30 0.00 97 1013.3
20260903044550 73 238 0.0 0.0 0.00 0.30 0.00 96 1013.2
20260903043018 72 238 0.0 0.0 0.00 0.30 0.00 96 1012.8
20260903041535 72 238 0.0 0.0 0.00 0.00 0.00 96 1012.5
20260903040001 72 238 0.0 0.0 0.00 0.30 0.00 96 1012.4
20260903034531 71 238 0.0 0.0 0.00 0.30 0.30 95 1012.5
20260903033002 71 238 0.0 0.0 0.00 0.30 0.30 95 1012.7
20260903031545 71 238 0.0 0.0 0.00 0.30 0.30 95 1013.0
20260903030008 71 238 0.0 0.0 0.00 0.30 0.30 94 1013.2
20260903024544 71 238 0.0 0.0 0.00 0.30 0.30 93 1013.2
20260903023020 71 238 0.0 0.0 0.26 0.30 0.30 92 1013.3
20260903021600 72 238 0.0 2.0 0.30 0.30 0.30 91 1013.4
20260903020037 73 244 2.0 8.0 0.30 0.30 0.30 89 1013.7
20260903014600 75 227 1.0 8.0 0.30 0.30 0.30 88 1014.4
20260903013019 81 232 0.0 2.0 0.03 0.03 0.03 81 1013.5
20260903011539 80 232 0.0 1.0 0.00 0.00 0.00 79 1012.9
20260903010007 80 234 0.0 1.0 0.00 0.00 0.00 79 1013.0
20260903004539 80 235 0.0 1.0 0.00 0.00 0.00 78 1013.0
20260903003040 82 235 0.0 1.0 0.00 0.00 0.00 76 1012.7
20260903001508 83 214 0.0 0.0 0.00 0.00 0.00 73 1012.8
20260903000047 84 215 0.0 1.0 0.00 0.00 0.00 70 1012.8
20260902234508 85 211 0.0 0.0 0.00 0.00 0.00 67 1012.9
20260902233059 87 211 0.0 4.0 0.00 0.00 0.00 65 1012.8
20260902231507 88 209 1.0 3.0 0.00 0.00 0.00 63 1012.7
20260902230150 88 234 1.0 4.0 0.00 0.00 0.00 60 1012.6
20260902224523 89 179 2.0 7.0 0.00 0.00 0.00 59 1012.8
20260902223114 90 148 2.0 5.0 0.00 0.00 0.00 59 1012.8
20260902221532 90 244 2.0 5.0 0.00 0.00 0.00 58 1012.6
20260902220104 91 236 1.0 4.0 0.00 0.00 0.00 57 1012.6
20260902214524 92 221 2.0 7.0 0.00 0.00 0.00 53 1013.0
20260902213105 92 244 2.0 4.0 0.00 0.00 0.00 55 1013.0
20260902211523 93 253 2.0 5.0 0.00 0.00 0.00 54 1012.8
20260902210106 93 233 1.0 4.0 0.00 0.00 0.00 56 1012.7
20260902204537 93 217 2.0 5.0 0.00 0.00 0.00 53 1013.0
20260902203114 93 180 2.0 6.0 0.00 0.00 0.00 54 1013.2
20260902201537 94 159 1.0 4.0 0.00 0.00 0.00 56 1013.3
20260902200004 93 202 2.0 8.0 0.00 0.00 0.00 55 1013.3
20260902194549 93 202 0.0 5.0 0.00 0.00 0.00 58 1013.4
20260902193002 93 90 2.0 6.0 0.00 0.00 0.00 55 1013.6
20260902191534 93 231 1.0 7.0 0.00 0.00 0.00 58 1013.7
20260902190108 93 207 1.0 6.0 0.00 0.00 0.00 61 1013.9
20260902184536 91 207 1.0 4.0 0.00 0.00 0.00 61 1014.2
20260902183113 92 182 1.0 5.0 0.00 0.00 0.00 60 1014.3
20260902181542 92 176 1.0 4.0 0.00 0.00 0.00 62 1014.5
20260902180111 92 202 2.0 5.0 0.00 0.00 0.00 61 1014.6
20260902174537 91 191 1.0 4.0 0.00 0.00 0.00 64 1014.7
20260902173120 89 210 1.0 5.0 0.00 0.00 0.00 66 1014.8
20260902171539 89 238 0.0 3.0 0.00 0.00 0.00 67 1014.9
20260902170010 89 203 1.0 4.0 0.00 0.00 0.00 68 1014.9
20260902164536 89 197 2.0 7.0 0.00 0.00 0.00 69 1015.1
20260902163106 87 209 1.0 4.0 0.00 0.00 0.00 71 1015.2
20260902161526 88 5 1.0 3.0 0.00 0.00 0.00 71 1015.2
20260902160100 88 237 0.0 4.0 0.00 0.00 0.00 72 1015.4
20260902154528 87 189 0.0 5.0 0.00 0.00 0.00 72 1015.4
20260902153112 86 219 2.0 5.0 0.00 0.00 0.00 73 1015.6
20260902151545 85 209 1.0 4.0 0.00 0.00 0.00 76 1015.7
20260902150013 84 239 0.0 3.0 0.00 0.00 0.00 79 1015.7
20260902144533 82 238 1.0 2.0 0.00 0.00 0.00 80 1015.8
20260902141537 79 239 1.0 3.0 0.00 0.00 0.00 87 1015.7
20260902140013 78 229 1.0 4.0 0.00 0.00 0.00 88 1015.6
20260902134553 77 246 1.0 4.0 0.00 0.00 0.00 91 1015.5
20260902133013 75 271 1.0 3.0 0.00 0.00 0.00 94 1015.5
20260902131546 74 231 1.0 5.0 0.00 0.00 0.00 95 1015.4
20260902130013 74 248 1.0 3.0 0.00 0.00 0.00 96 1015.5
20260902124521 73 248 1.0 5.0 0.00 0.00 0.00 97 1015.5
20260902123056 73 238 0.0 2.0 0.00 0.00 0.00 97 1015.5
20260902121515 72 237 0.0 0.0 0.00 0.00 0.00 97 1015.5
20260902120054 71 237 0.0 0.0 0.00 0.00 0.00 97 1015.5
20260902114514 72 237 0.0 0.0 0.00 0.00 0.00 97 1015.2
20260902113054 71 237 0.0 3.0 0.00 0.00 0.00 97 1014.8
20260902111604 70 239 0.0 0.0 0.00 0.00 0.00 97 1014.9